Location: El Guaramo
(10.5194°N, 67.1667°W)
Time: 11:42:56
(UTC+00:00)

Daily predictions for brighter satellites

Satellite Brightness Start Highest point End
(mag) Time Altitude Azimuth Time Altitude Azimuth Time Altitude Azimuth
[s.n.59505] 4.2 22:59:00 10° N 23:00:55 18° NE 23:02:51 10° E
[s.n.59504] 4.2 22:59:17 10° N 23:01:13 19° NE 23:03:08 10° E
[s.n.59503] 4.2 22:59:40 10° N 23:01:37 19° NE 23:03:34 10° E
[s.n.59502] 4.2 23:00:00 10° N 23:01:58 19° NE 23:03:55 10° E
[s.n.59501] 4.2 23:00:22 10° N 23:02:20 19° NE 23:04:18 10° E
[s.n.59500] 4.1 23:00:38 10° N 23:02:38 19° NE 23:04:37 10° E
[s.n.59490] 4.1 23:00:43 10° N 23:02:43 19° NE 23:04:41 10° E
[s.n.59499] 4.1 23:00:56 10° N 23:02:56 20° NE 23:04:56 10° E
[s.n.59498] 4.1 23:01:15 10° N 23:03:17 20° NE 23:05:18 10° E
[s.n.59496] 4.1 23:01:41 10° N 23:03:43 20° NE 23:05:44 10° E
[s.n.59497] 4.1 23:02:03 10° N 23:04:05 20° NE 23:06:07 10° E
[s.n.59495] 4.1 23:02:17 10° N 23:04:21 20° NE 23:06:23 10° E
[s.n.59494] 4.0 23:02:39 10° N 23:04:44 21° NE 23:06:48 10° E
[s.n.59493] 4.0 23:02:54 10° N 23:04:58 21° NE 23:07:03 10° E
[s.n.59492] 4.0 23:03:15 10° NNW 23:05:21 21° NE 23:07:26 10° E
[s.n.59491] 4.0 23:03:56 10° NNW 23:06:04 22° NE 23:08:06 10° E
[s.n.59487] 4.0 23:04:13 10° NNW 23:06:21 22° NE 23:08:23 11° E
[s.n.59489] 3.9 23:04:30 10° NNW 23:06:39 22° NE 23:08:40 11° E
Cosmos 1346 Rocket 2.7 23:02:56 10° S 23:06:46 89° ESE 23:10:35 10° N
[s.n.59488] 3.9 23:04:52 10° NNW 23:07:01 22° NE 23:09:00 11° E
[s.n.59486] 3.9 23:05:16 10° NNW 23:07:26 23° NE 23:09:25 11° E
[s.n.59485] 3.9 23:05:32 10° NNW 23:07:43 23° NE 23:09:42 11° E
[s.n.59484] 3.9 23:05:46 10° NNW 23:07:57 23° NE 23:09:55 11° E
NOAA 6 4.0 23:06:13 10° SSE 23:11:19 77° ENE 23:16:25 10° N
Intelsat 5-3 Rocket 4.1 23:08:31 10° WSW 23:13:47 88° SSE 23:27:44 10° ENE
NOSS 3-1 (A) 3.6 23:10:29 10° SW 23:14:59 54° WNW 23:19:37 10° NNE
Cosmos 2221 Rocket 3.6 23:12:47 10° N 23:17:17 66° E 23:21:45 10° SSE
Cosmos 2154 Rocket 4.3 23:11:25 10° N 23:17:34 75° W 23:23:46 10° S
USA 229 DEB 3.7 23:17:49 10° S 23:23:12 38° ESE 23:28:40 10° NE
USA 229 3.8 23:17:55 10° S 23:23:17 37° ESE 23:28:46 10° NE
CBERS 1 LM4 rocket 4.2 23:19:37 10° SSE 23:24:24 77° ENE 23:29:06 10° N
Palapa 6 Rocket 3.8 23:23:46 10° NW 23:27:05 30° NNE 23:29:29 16° ENE
IKONOS-2 4.5 23:23:15 10° NNE 23:27:22 59° E 23:31:29 10° S
CZ-4B R/B 3.4 23:23:47 10° SSE 23:28:50 80° ENE 23:33:43 10° N
IGS 5A 4.0 23:25:17 10° S 23:29:17 60° W 23:33:18 10° NNW
Cosmos 1741 Rocket 3.9 23:25:38 10° N 23:30:52 74° ENE 23:36:09 10° SSE
Delta 7925 Rocket 3.5 23:29:05 10° WNW 23:34:01 81° SSW 23:38:08 20° ESE
GPS 2-14 Rocket1 2.5 23:31:28 10° WNW 23:34:46 57° NNE 23:36:17 28° E
GOES 2 Rocket 3.0 23:31:44 10° WSW 23:36:01 82° SSE 23:40:07 16° ENE
H-2A R/B 3.5 23:00:46 10° WSW 23:37:10 80° NNW 23:41:30 12° ENE
Cosmos 1674 Rocket 4.5 23:36:19 10° NNW 23:40:37 51° W 23:44:55 10° S
Cosmos 1455 4.2 23:38:46 10° SW 23:41:52 28° W 23:44:57 10° NNW
Iridium 921 4.3 23:38:30 10° N 23:41:58 79° E 23:45:26 10° S
Cosmos 1025 Rocket 3.2 23:40:56 10° N 23:45:09 48° E 23:47:45 21° SSE
Meteor PRIRODA 3.4 23:41:54 10° S 23:45:18 80° W 23:48:42 10° NNW
ATLAS 3B R/B 4.5 23:41:26 10° SW 23:47:15 33° WNW 23:53:28 10° N
Cosmos 1850 Rocket 4.4 23:42:28 10° NNW 23:47:38 65° WSW 23:52:45 10° S
Cosmos 962 Rocket 4.5 23:41:40 10° N 23:48:01 89° E 23:54:24 10° S
CZ-3C R/B 3.8 23:40:52 10° W 23:48:38 20° SW 23:51:39 10° S
Star 37E S/N 40062 4.5 23:47:26 10° NW 23:47:57 17° NNW 23:47:57 17° NNW
Cosmos 2181 Rocket 4.3 23:43:34 10° SSW 23:49:39 68° W 23:55:47 10° N
Resurs 1-3 3.8 23:53:06 38° ESE 23:54:01 45° ENE 23:58:10 10° N
Cosmos 2098 Rocket 3.6 23:48:03 10° S 23:54:04 86° W 23:59:02 10° N
Cosmos 1656 3.7 23:48:44 10° S 23:54:15 55° ESE 23:59:41 10° NNE
YAOGAN 1 3.3 23:50:43 10° S 23:54:53 52° W 23:59:02 10° NNW
